Location: Ozark
(37.5425°N, 88.7628°W)
Time: 15:15:32
(UTC+00:00)

YAOGAN 6 - Pass Details

Date: 26 January 2020
Orbit: 465 x 506 km, 97.0° (Epoch: 17 February)

Event Time Altitude Azimuth Distance (km) Brightness Sun altitude
Rises 23:43:09 0° 158° (SSE) 2,586 6.2 -6.6°
Reaches altitude 10° 23:45:16 10° 153° (SSE) 1,703 5.2 -7.0°
Maximum altitude 23:48:51 54° 76° (ENE) 612 2.7 -7.7°
Drops below altitude 10° 23:52:25 10° 359° (N) 1,698 5.2 -8.3°
Sets 23:54:31 0° 354° (N) 2,578 6.1 -8.7°
